Weather History for Amritsar, India

Change the Weather History Date:

Thursday, July 4, 2013

  Actual Average Record
Temperature  
Mean Temperature 92 °F -  
Max Temperature 100 °F 93 °F 104 °F (1997)
Min Temperature 84 °F 79 °F 73 °F (2007)
Cooling Degree Days 27    
Growing Degree Days 42 (Base 50)    
Moisture  
Dew Point 80 °F    
Average Humidity 70    
Maximum Humidity 100    
Minimum Humidity 43    
Precipitation  
Precipitation 0.00 in - - ()
Sea Level Pressure  
Sea Level Pressure 29.50 in    
Wind  
Wind Speed 3 mph ()    
Max Wind Speed 12 mph    
Max Gust Speed -    
Visibility 2.5 miles    
Events      
Averages and records for this station are not official NWS values.
T = Trace of Precipitation, MM = Missing Value Source: Averaged Metar Reports

Daily Weather History Graph

Daily Weather History Graph

Search for Another Location

Airport:

Trip Planner

Search our weather history database for the weather conditions in past years. The results will help you decide how hot, cold, wet, or windy it might be!

Date:

Astronomy

Jul. 04, 2013 Rise Set
Actual Time 5:30 AM IST 7:39 PM IST
Civil Twilight 5:02 AM IST 8:07 PM IST
Nautical Twilight 4:28 AM IST 8:41 PM IST
Astronomical Twilight 3:51 AM IST 9:18 PM IST
Moon 2:23 AM IST (7/4) 4:24 PM IST (7/4)
Length of Visible Light 15h 05m
Length of Day
14h 09m
Waning Crescent, 14% of the Moon is Illuminated
Jul 4
Waning Crescent
Jul 8
New
Jul 16
First Quarter
Jul 22
Full
Jul 29
Last Quarter

Hourly Weather History & Observations

Time (IST) Temp. Heat Index Dew Point Humidity Pressure Visibility Wind Dir Wind Speed Gust Speed Precip Events Conditions
12:00 AM 89.6 °F 102.2 °F 77.0 °F 66% 29.50 in 2.5 mi Variable 1.2 mph - N/A   Haze
1:00 AM 89.6 °F 102.2 °F 77.0 °F 66% 29.50 in 2.5 mi Variable 1.2 mph - N/A   Haze
1:30 AM 89.6 °F 102.2 °F 77.0 °F 66% 29.50 in 2.5 mi Calm Calm - N/A   Haze
3:00 AM 87.8 °F 120.2 °F 87.8 °F 100% 29.50 in 2.5 mi Calm Calm - N/A   Scattered Clouds
4:00 AM 87.8 °F 120.2 °F 87.8 °F 100% 29.50 in 2.5 mi Calm Calm - N/A   Scattered Clouds
4:30 AM 87.8 °F 120.2 °F 87.8 °F 100% 29.50 in 2.5 mi Calm Calm - N/A   Scattered Clouds
5:30 AM 86 °F - 86 °F 100% 29.47 in 2 mi Calm Calm - -   Mist
6:00 AM 86.0 °F 111.5 °F 86.0 °F 100% 29.50 in 1.9 mi SSE 3.5 mph - N/A   Overcast
7:00 AM 87.8 °F 120.2 °F 87.8 °F 100% 29.53 in 1.6 mi SSE 4.6 mph - N/A   Mostly Cloudy
7:30 AM 87.8 °F 120.2 °F 87.8 °F 100% 29.53 in 1.6 mi South 3.5 mph - N/A   Mostly Cloudy
8:30 AM 85 °F - 84 °F 96% 29.52 in 1 mi ENE 11.5 mph - -   Mist
9:00 AM 86.0 °F 107.7 °F 84.2 °F 94% 29.56 in 2.2 mi East 9.2 mph - N/A   Overcast
10:00 AM 87.8 °F 115.4 °F 86.0 °F 94% 29.56 in 2.5 mi ENE 8.1 mph - N/A   Mostly Cloudy
10:30 AM 91.4 °F 105.1 °F 77.0 °F 63% 29.56 in 2.5 mi East 8.1 mph - N/A   Haze
11:30 AM 91.4 °F 107.2 °F 78.8 °F 66% 29.56 in 3.1 mi East 9.2 mph - N/A   Haze
12:00 PM 93.2 °F 110.2 °F 78.8 °F 63% 29.53 in 3.1 mi ESE 8.1 mph - N/A   Haze
12:30 PM 93.2 °F 110.2 °F 78.8 °F 63% 29.53 in 3.1 mi ESE 9.2 mph - N/A   Haze
1:00 PM 96.8 °F 114.8 °F 78.8 °F 56% 29.53 in 3.1 mi SSE 8.1 mph - N/A   Haze
2:00 PM 96.8 °F 114.8 °F 78.8 °F 56% 29.53 in 3.1 mi SSE 9.2 mph - N/A   Haze
2:30 PM 97 °F - 76 °F 43% 29.46 in 2 mi SSE 9.2 mph - -   Haze
2:30 PM 96.8 °F 114.8 °F 78.8 °F 56% 29.50 in 3.1 mi South 10.4 mph - N/A   Haze
3:00 PM 96.8 °F 114.8 °F 78.8 °F 56% 29.50 in 3.1 mi SSE 9.2 mph - N/A   Haze
3:30 PM 96.8 °F 112.2 °F 77.0 °F 53% 29.47 in - SSE 8.1 mph - N/A   Haze
4:30 PM 96.8 °F 112.2 °F 77.0 °F 53% 29.44 in 3.1 mi South 4.6 mph - N/A   Haze
5:30 PM 97 °F - 77 °F 44% 29.39 in 2 mi 2.3 mph - -   Haze
5:30 PM 96.8 °F 112.2 °F 77.0 °F 53% 29.44 in 3.1 mi Variable 2.3 mph - N/A   Haze
7:00 PM 96.8 °F 112.2 °F 77.0 °F 53% 29.44 in 3.1 mi Variable 1.2 mph - N/A   Haze
8:30 PM 94 °F - 77 °F 50%  in 2 mi Calm Calm - -   Haze
8:30 PM 95.0 °F 109.7 °F 77.0 °F 56% 29.44 in 3.1 mi Calm Calm - N/A   Haze
10:30 PM 93.2 °F 110.2 °F 78.8 °F 63% 29.47 in 2.5 mi Calm Calm - N/A   Haze
11:30 PM 92 °F - 78 °F 56% 29.43 in 2 mi Calm Calm - -   Haze
11:30 PM 91.4 °F 107.2 °F 78.8 °F 66% 29.50 in 2.5 mi Calm Calm - N/A   Haze